Weather reports worldwide

Advertisment
Neuburg/Donau, Germany (10853): temperature & dewpoint: 14.06.2019 06:00:00 - 20.06.2019 06:00:00 (CEST)Neuburg/Donau, Germany (10853): wind speed & gusts: 14.06.2019 06:00:00 - 20.06.2019 06:00:00 (CEST)Neuburg/Donau, Germany (10853): wind direction: 14.06.2019 06:00:00 - 20.06.2019 06:00:00 (CEST)Neuburg/Donau, Germany (10853): reduced air pressure: 14.06.2019 06:00:00 - 20.06.2019 06:00:00 (CEST)Neuburg/Donau, Germany (10853): visibility: 14.06.2019 06:00:00 - 20.06.2019 06:00:00 (CEST)
Date & Time tt [°C] td [°C] ff [km/h] ff [kn] fx [km/h] fx [kn] dd ppp [hPa] vv [km]
20.06.2019 06:00:00 - - - - - - - - -
20.06.2019 05:00:00 17,4 15,2 4 2 - - WNW 1013,3 20
20.06.2019 04:00:00 17,7 15,0 18 10 47 25 WSW 1013,4 30
20.06.2019 03:00:00 19,4 14,7 29 16 - - W 1011,5 20
20.06.2019 02:00:00 15,5 13,9 4 2 - - - 1010,6 10
20.06.2019 01:00:00 17,5 15,2 4 2 - - NNE 1010,3 50
20.06.2019 00:00:00 18,0 15,2 4 2 - - NNW 1009,9 50
19.06.2019 23:00:00 19,9 15,7 4 2 - - W 1009,3 50
19.06.2019 22:00:00 22,0 17,0 4 2 - - NNW 1009,0 50
19.06.2019 21:00:00 24,6 15,8 7 4 - - E 1008,4 60
19.06.2019 20:00:00 26,9 14,3 4 2 - - WSW 1008,1 60
19.06.2019 19:00:00 28,1 12,7 7 4 - - W 1007,7 60
19.06.2019 18:00:00 29,9 11,6 8 4 - - W 1007,8 10
19.06.2019 17:00:00 30,0 10,9 7 4 - - S 1008,0 60
19.06.2019 16:00:00 29,3 10,8 7 4 - - SW 1008,7 50
19.06.2019 15:00:00 29,3 10,9 7 4 - - SSW 1009,1 60
19.06.2019 14:00:00 28,6 12,5 11 6 - - W 1009,9 60
19.06.2019 13:00:00 27,2 13,6 7 4 - - SSE 1010,4 60
19.06.2019 12:00:00 26,0 14,3 7 4 - - S 1010,7 60
19.06.2019 11:00:00 24,2 14,0 4 2 - - E 1011,3 60
19.06.2019 10:00:00 21,9 15,0 8 4 - - SE 1011,9 10
19.06.2019 09:00:00 19,8 14,4 4 2 - - N 1012,5 50
19.06.2019 08:00:00 19,1 15,0 7 4 - - SSE 1012,6 45
19.06.2019 07:00:00 17,4 15,1 4 2 - - SSE 1012,8 45
19.06.2019 06:00:00 16,9 14,3 4 2 - - N 1012,8 40
19.06.2019 05:00:00 18,0 13,9 7 4 - - SW 1012,7 35
19.06.2019 04:00:00 18,2 14,4 4 2 - - N 1012,7 30
19.06.2019 03:00:00 18,0 14,3 4 2 - - WNW 1013,1 30
19.06.2019 02:00:00 18,6 13,8 4 2 - - WSW 1013,2 30
19.06.2019 01:00:00 18,6 14,2 7 4 - - SW 1013,6 35
19.06.2019 00:00:00 17,9 14,7 0 0 - - N 1013,6 35
18.06.2019 23:00:00 18,7 15,4 4 2 - - WSW 1013,3 40
18.06.2019 22:00:00 20,3 15,3 7 4 - - WSW 1012,7 40
18.06.2019 21:00:00 23,2 14,3 4 2 - - W 1012,2 45
18.06.2019 20:00:00 25,4 11,8 4 2 - - NNE 1011,9 45
18.06.2019 19:00:00 28,3 11,1 4 2 - - N 1011,6 45
18.06.2019 18:00:00 28,3 11,3 4 2 - - N 1011,7 45
18.06.2019 17:00:00 27,5 12,5 4 2 - - WSW 1012,2 40
18.06.2019 16:00:00 27,6 13,7 7 4 - - N 1012,6 40
18.06.2019 15:00:00 27,1 12,9 4 2 - - NE 1013,2 40
18.06.2019 14:00:00 25,7 14,2 7 4 - - SSE 1013,7 40
18.06.2019 13:00:00 24,9 15,5 7 4 - - SE 1014,5 35
18.06.2019 12:00:00 23,7 15,3 7 4 - - NE 1015,1 35
18.06.2019 11:00:00 22,5 15,3 7 4 - - SE 1015,5 35
18.06.2019 10:00:00 21,9 14,4 14 8 - - E 1015,7 35
18.06.2019 09:00:00 20,6 13,7 14 8 - - E 1016,2 35
18.06.2019 08:00:00 19,2 14,2 7 4 - - ENE 1016,4 35
18.06.2019 07:00:00 14,9 14,1 0 0 - - N 1016,9 30
18.06.2019 06:00:00 13,8 12,6 4 2 - - NNE 1017,0 30
18.06.2019 05:00:00 14,8 13,1 4 2 - - NNE 1016,8 40
18.06.2019 04:00:00 15,2 13,1 7 4 - - N 1016,9 40
18.06.2019 03:00:00 16,1 13,2 7 4 - - N 1016,9 40
18.06.2019 02:00:00 16,7 13,2 7 4 - - NNE 1017,4 40
18.06.2019 01:00:00 17,2 13,9 7 4 - - NNE 1017,5 50
18.06.2019 00:00:00 17,5 14,0 7 4 - - N 1017,1 50
17.06.2019 23:00:00 18,3 13,5 4 2 - - NE 1017,0 50
17.06.2019 22:00:00 20,0 12,9 7 4 - - NE 1016,7 50
17.06.2019 21:00:00 22,3 13,3 7 4 - - ENE 1016,1 50
17.06.2019 20:00:00 24,6 11,9 11 6 - - ENE 1015,7 60
17.06.2019 19:00:00 25,1 12,1 14 8 - - E 1015,7 70
17.06.2019 18:00:00 25,5 12,4 14 8 - - ENE 1016,1 65
17.06.2019 17:00:00 26,1 13,8 14 8 - - ENE 1016,4 65
17.06.2019 16:00:00 25,3 13,2 11 6 - - ENE 1017,0 60
17.06.2019 15:00:00 25,4 14,7 11 6 - - ENE 1017,5 60
17.06.2019 14:00:00 24,3 13,9 11 6 - - ENE 1018,1 55
17.06.2019 13:00:00 23,5 14,3 14 8 - - ENE 1018,7 50
17.06.2019 12:00:00 21,4 12,4 14 8 - - E 1019,3 45
17.06.2019 11:00:00 21,5 14,7 7 4 - - E 1019,6 35
17.06.2019 10:00:00 19,5 14,4 7 4 - - E 1020,4 23
17.06.2019 09:00:00 17,3 13,9 7 4 - - ENE 1021,4 12
17.06.2019 08:00:00 15,3 13,8 4 2 - - ENE 1021,8 6
17.06.2019 07:00:00 12,0 11,8 4 2 - - N 1022,4 2,0
17.06.2019 06:00:00 8,9 8,6 4 2 - - SSW 1023,1 0,4
17.06.2019 05:00:00 9,7 9,4 0 0 - - N 1022,7 0,1
17.06.2019 04:00:00 10,8 10,4 4 2 - - N 1022,4 1,0
17.06.2019 03:00:00 11,6 11,2 4 2 - - NNW 1022,3 1,2
17.06.2019 02:00:00 11,9 11,5 0 0 - - N 1023,2 1,2
17.06.2019 01:00:00 12,6 11,4 0 0 - - N 1023,0 30
17.06.2019 00:00:00 14,1 12,2 4 2 - - NW 1022,8 30
16.06.2019 23:00:00 15,0 12,2 4 2 - - NNE 1022,7 35
16.06.2019 22:00:00 16,5 13,1 7 4 - - N 1022,2 40
16.06.2019 21:00:00 18,3 13,3 7 4 - - NNW 1021,4 50
16.06.2019 20:00:00 20,0 12,8 14 8 - - NW 1021,1 50
16.06.2019 19:00:00 19,9 13,3 7 4 - - NNW 1020,9 50
16.06.2019 18:00:00 20,9 13,9 7 4 - - NNW 1020,5 50
16.06.2019 17:00:00 19,6 12,2 14 8 - - WNW 1020,7 45
16.06.2019 16:00:00 19,6 14,0 11 6 - - N 1020,9 35
16.06.2019 15:00:00 19,8 14,7 7 4 - - N 1020,7 35
16.06.2019 14:00:00 19,5 12,8 14 8 - - WNW 1021,1 35
16.06.2019 13:00:00 18,7 13,5 14 8 - - W 1021,1 35
16.06.2019 12:00:00 17,7 14,0 11 6 - - W 1021,4 35
16.06.2019 11:00:00 16,4 14,3 11 6 - - WSW 1021,4 35
16.06.2019 10:00:00 15,4 14,1 18 10 - - W 1021,1 12
16.06.2019 09:00:00 14,5 13,7 15 8 - - WSW 1021,0 2,8
16.06.2019 08:00:00 15,0 13,7 13 7 - - W 1020,2 6
16.06.2019 07:00:00 15,1 13,7 14 8 - - WSW 1019,6 9
16.06.2019 06:00:00 15,3 14,0 14 8 - - WSW 1019,0 15
16.06.2019 05:00:00 15,6 14,3 14 8 - - WSW 1019,0 12
16.06.2019 04:00:00 15,6 14,4 14 8 - - W 1018,7 20
16.06.2019 03:00:00 15,2 14,6 14 8 - - N 1017,5 15
16.06.2019 02:00:00 16,2 15,1 22 12 - - W 1018,8 10
16.06.2019 01:00:00 17,0 15,4 15 8 - - WNW 1016,4 10
16.06.2019 00:00:00 17,6 14,5 24 13 - - W 1016,3 6
15.06.2019 23:00:00 19,7 12,8 7 4 - - N 1014,6 30
15.06.2019 22:00:00 19,6 12,4 7 4 - - N 1014,5 45
15.06.2019 21:00:00 21,2 12,6 14 8 - - NNW 1014,0 45
15.06.2019 20:00:00 23,6 13,2 11 6 - - N 1013,7 55
15.06.2019 19:00:00 24,2 13,1 11 6 - - NNW 1013,5 55
15.06.2019 18:00:00 24,5 13,3 14 8 - - NW 1013,6 55
15.06.2019 17:00:00 25,0 12,6 14 8 - - WNW 1013,6 55
15.06.2019 16:00:00 25,3 12,9 14 8 - - WNW 1013,9 50
15.06.2019 15:00:00 25,3 13,5 14 8 - - NW 1013,9 45
15.06.2019 14:00:00 24,7 13,5 14 8 - - WNW 1014,1 45
15.06.2019 13:00:00 23,9 12,9 18 10 - - WNW 1013,9 45
15.06.2019 12:00:00 24,2 12,4 22 12 - - WNW 1013,5 45
15.06.2019 11:00:00 24,1 13,0 22 12 - - WNW 1013,4 40
15.06.2019 10:00:00 23,5 13,2 29 16 - - W 1012,5 35
15.06.2019 09:00:00 23,0 13,5 18 10 - - W 1011,6 35
15.06.2019 08:00:00 21,4 15,2 11 6 - - W 1010,7 30
15.06.2019 07:00:00 18,3 15,5 14 8 - - W 1010,4 30
15.06.2019 06:00:00 16,8 14,7 4 2 - - NNE 1009,3 30
15.06.2019 05:00:00 16,2 13,8 4 2 - - S 1009,3 30
15.06.2019 04:00:00 17,8 14,8 4 2 - - N 1009,2 35
15.06.2019 03:00:00 18,3 14,6 4 2 - - W 1010,3 35
15.06.2019 02:00:00 19,8 15,2 11 6 - - W 1010,1 35
15.06.2019 01:00:00 18,9 14,6 4 2 - - N 1009,8 35
15.06.2019 00:00:00 20,3 15,2 4 2 - - N 1009,9 35
14.06.2019 23:00:00 23,6 15,1 7 4 - - NNE 1009,7 40
14.06.2019 22:00:00 24,0 13,5 4 2 - - NNE 1010,2 40
14.06.2019 21:00:00 25,9 13,6 7 4 - - NNE 1010,1 40
14.06.2019 20:00:00 29,7 15,5 7 4 - - N 1010,4 40
14.06.2019 19:00:00 29,1 14,5 7 4 - - NE 1010,9 40
14.06.2019 18:00:00 29,7 14,7 11 6 - - NE 1011,5 40
14.06.2019 17:00:00 29,8 14,7 7 4 - - NNE 1012,3 40
14.06.2019 16:00:00 29,3 14,1 11 6 - - ENE 1012,8 45
14.06.2019 15:00:00 30,8 13,4 11 6 - - ENE 1013,2 45
14.06.2019 14:00:00 29,4 12,3 18 10 - - E 1014,0 45
14.06.2019 13:00:00 28,2 13,4 22 12 - - E 1014,5 45
14.06.2019 12:00:00 27,2 13,6 18 10 - - ESE 1015,1 45
14.06.2019 11:00:00 25,6 12,5 14 8 - - E 1015,6 45
14.06.2019 10:00:00 22,9 12,9 11 6 - - ENE 1016,0 45
14.06.2019 09:00:00 20,0 12,4 11 6 - - ENE 1016,7 45
14.06.2019 08:00:00 17,2 11,7 7 4 - - NE 1017,1 45
14.06.2019 07:00:00 12,5 11,0 0 0 - - N 1018,1 40
14.06.2019 06:00:00 10,4 9,7 4 2 - - N 1018,6 40

tt = temperature
td = dewpoint
ff = wind speed
fx = gusts
dd = wind direction
ppp = reduced air pressure
vv = visibility

Next stations